Regional Weather Roundup
Issued by NWS State College, PA

Home | Current Version | Previous Version | Graphics & Text | Print | Product List | Glossary On
Versions: 1 2 3 4 5 6 7 8 9 10 11 12 13 14 15 16 17 18 19 20 21 22 23 24 25 26 27 28 29 30 31 32 33 34 35 36 37 38 39 40 41 42 43 44 45 46 47 48 49 50
000
ASUS41 KCTP 152310
RWRCTP

REGIONAL WEATHER ROUNDUP
NATIONAL WEATHER SERVICE STATE COLLEGE PA
700 PM EDT FRI OCT 15 2021

Note: "fair" indicates few or no clouds below 12,000 feet with no
significant weather and/or obstructions to visibility.

* = STATION THAT DOES NOT REPORT PRECIPITATION /E.G. RAIN...SNOW...ETC/
    THUNDER OR FOG.

PAZ002>004-007>009-013>016-020>023-029>032-160000-
WESTERN PENNSYLVANIA

CITY           SKY/WX    TMP DP  RH WIND       PRES   REMARKS
ERIE           MOCLDY    74  67  78 S8        29.74F
MEADVILLE      MOCLDY    72  62  71 SW10G17   29.79F
FRANKLIN       MOCLDY    72  61  68 SW12G22   29.83S
NEW CASTLE     CLOUDY    74  62  66 VRB6      29.82S
BEAVER COUNTY  CLOUDY    75  61  60 S8        29.84R
BUTLER         CLOUDY    72  62  71 SW6       29.85S
PITTSBURGH INT MOCLDY    74  62  66 S3        29.83F
PITTSBURGH     MOCLDY    75  64  68 S5        29.84S
INDIANA*       PTCLDY    72  66  83 CALM      29.89S
LATROBE        NOT AVBL
WASHINGTON CO* MOCLDY    72  66  81 CALM      29.87R
$$

PAZ004>006-010>012-017>019-024>028-033>037-041-042-045-046-049>053-160000-
CENTRAL PENNSYLVANIA

CITY           SKY/WX    TMP DP  RH WIND       PRES   REMARKS
BRADFORD       MOCLDY    70  63  78 VRB3      29.85F
ST MARYS       MOCLDY    70  64  83 S6        29.88
DUBOIS         MOCLDY    72  63  73 SW7       29.85F
CLEARFIELD     MOCLDY    69  67  93 CALM      29.85S
JOHNSTOWN      MOCLDY    70  61  73 S5        29.90S
SOMERSET       MOCLDY    68  61  77 CALM      29.91S
ALTOONA        MOCLDY    73  63  70 S10       29.87R
STATE COLLEGE  PTCLDY    72  66  83 SW6       29.86S
REEDSVILLE     FAIR      75  70  83 SW5       29.84S
WELLSBORO      MOCLDY    70  64  83 SW8       29.87R
WILLIAMSPORT   MOCLDY    75  66  73 VRB5      29.80F
SELINSGROVE    MOCLDY    75  67  76 CALM      29.83F
FT INDIANTOWN  CLOUDY    76  66  71 CALM      29.86F
CAPITAL CITY   MOCLDY    80  67  64 S7        29.85S
HARRISBURG     MOCLDY    78  66  66 S10       29.84F
YORK           NOT AVBL
$$

PAZ038>040-043-044-047-048-054-055-060>062-067>071-160000-
EASTERN PENNSYLVANIA

CITY           SKY/WX    TMP DP  RH WIND       PRES   REMARKS
TOWANDA        CLEAR     72  68  88 E3        29.85F
SCRANTON       PTCLDY    76  66  71 VRB6      29.87S
MOUNT POCONO   PTCLDY    69  64  84 S6        29.93S
HAZLETON       FAIR      72  64  78 S3        29.93F
LEHIGHTON      FAIR      68  64  88 CALM      29.88F
ALLENTOWN      PTCLDY    76  66  71 S6        29.87S
QN CITY/ALNTWN FAIR      75  66  73 S5        29.89S
QUAKERTOWN*    CLEAR     75  68  78 S5        29.89F
PERKASIE*      PTCLDY    73  68  83 SW3       29.91R
DOYLESTOWN     PTCLDY    75  64  68 S6        29.88S
READING        MOCLDY    77  67  71 S6        29.86S
LANCASTER      PTCLDY    76  66  71 S7        29.87F
COATESVILLE    PTCLDY    72  66  83 CALM      29.91F
WEST CHESTER   PTCLDY    73  63  68 CALM      29.90S
POTTSTOWN      PTCLDY    73  65  75 S3        29.90S
BLUE BELL      NOT AVBL
NORTH PHILA    PTCLDY    77  65  66 VRB3      29.89S
PHILADELPHIA   MOCLDY    77  64  64 S6        29.88F
$$



USA.gov is the U.S. government's official web portal to all federal, state and local government web resources and services.